Winthrop, MA

9:37 PM EST on February 24, 2017 (GMT -0500)
Logan International

Weather History for KBOS - April, 2014

Change the Weather History Date:

Saturday, April 12, 2014

  Actual Average Record
Temperature  
Mean Temperature 59 °F 47 °F  
Max Temperature 69 °F 54 °F 85 °F (1945)
Min Temperature 49 °F 40 °F 20 °F (1874)
Degree Days  
Heating Degree Days 6 18  
Month to date heating degree days 201 241  
Since 1 July heating degree days 5319 5112  
Cooling Degree Days 0 0  
Month to date cooling degree days 0 0  
Year to date cooling degree days 0 0  
Growing Degree Days 8 (Base 50)    
Moisture  
Dew Point 35 °F    
Average Humidity 53    
Maximum Humidity 86    
Minimum Humidity 20    
Precipitation  
Precipitation 0.04 in 0.14 in 1.44 in (1894)
Month to date precipitation 1.24 1.65  
Year to date precipitation 13.09 12.58  
Snow  
Snow 0.00 in 0.10 in 3.60 in (1918)
Month to date snowfall 0.0 1.3  
Since 1 July snowfall 58.6 43.2  
Snow Depth -    
Sea Level Pressure  
Sea Level Pressure 30.11 in    
Wind  
Wind Speed 9 mph (West)    
Max Wind Speed 20 mph    
Max Gust Speed 26 mph    
Visibility 10 miles    
Events Rain    
T = Trace of Precipitation, MM = Missing Value Source: NWS Daily Summary

Daily Weather History Graph

Daily Weather History Graph

Search for Another Location

Airport or City:

Trip Planner

Search our weather history database for the weather conditions in past years. The results will help you decide how hot, cold, wet, or windy it might be!

Date:

Astronomy

Apr. 12, 2014 Rise Set
Actual Time 6:08 AM EDT 7:22 PM EDT
Civil Twilight 5:39 AM EDT 7:51 PM EDT
Nautical Twilight 5:04 AM EDT 8:26 PM EDT
Astronomical Twilight 4:27 AM EDT 9:02 PM EDT
Moon 4:55 PM EDT (4/12) 4:36 AM EDT (4/12)
Length of Visible Light 14h 12m
Length of Day
13h 14m
Waxing Gibbous, 93% of the Moon is Illuminated
Apr 12
Waxing Gibbous
Apr 15
Full
Apr 22
Last Quarter
Apr 29
New
May 6
First Quarter

Hourly Weather History & Observations

Time (EDT) Temp. Dew Point Humidity Pressure Visibility Wind Dir Wind Speed Gust Speed Precip Events Conditions
12:54 AM 53.1 °F 43.0 °F 69% 29.99 in 10.0 mi NNW 5.8 mph - 0.00 in Rain Light Rain
1:54 AM 52.0 °F 43.0 °F 71% 29.98 in 9.0 mi Calm Calm - 0.02 in Rain Light Rain
2:54 AM 51.1 °F 44.1 °F 77% 29.99 in 9.0 mi NNW 6.9 mph - 0.00 in Rain Light Rain
3:54 AM 50.0 °F 45.0 °F 83% 30.01 in 10.0 mi WNW 4.6 mph - 0.02 in   Overcast
4:54 AM 50.0 °F 44.1 °F 80% 30.04 in 10.0 mi WNW 8.1 mph - N/A   Mostly Cloudy
5:54 AM 48.9 °F 44.1 °F 83% 30.06 in 10.0 mi WNW 10.4 mph - N/A   Scattered Clouds
6:54 AM 48.9 °F 43.0 °F 80% 30.10 in 10.0 mi WNW 9.2 mph - N/A   Scattered Clouds
7:54 AM 51.1 °F 41.0 °F 68% 30.12 in 10.0 mi WNW 10.4 mph - N/A   Scattered Clouds
8:54 AM 53.1 °F 39.9 °F 61% 30.14 in 10.0 mi WNW 11.5 mph - N/A   Partly Cloudy
9:54 AM 57.0 °F 39.9 °F 53% 30.16 in 10.0 mi WNW 6.9 mph - N/A   Clear
10:54 AM 59.0 °F 34.0 °F 39% 30.17 in 10.0 mi NW 3.5 mph - N/A   Clear
11:54 AM 62.1 °F 26.1 °F 25% 30.17 in 10.0 mi NW 9.2 mph - N/A   Partly Cloudy
12:54 PM 64.0 °F 28.0 °F 26% 30.15 in 10.0 mi WSW 10.4 mph 19.6 mph N/A   Scattered Clouds
1:54 PM 66.9 °F 28.0 °F 23% 30.12 in 10.0 mi West 11.5 mph - N/A   Mostly Cloudy
2:54 PM 68.0 °F 28.0 °F 22% 30.11 in 10.0 mi West 16.1 mph 21.9 mph N/A   Scattered Clouds
3:54 PM 68.0 °F 28.0 °F 22% 30.10 in 10.0 mi West 13.8 mph 24.2 mph N/A   Scattered Clouds
4:54 PM 69.1 °F 28.9 °F 22% 30.10 in 10.0 mi WSW 12.7 mph - N/A   Partly Cloudy
5:54 PM 68.0 °F 28.9 °F 23% 30.11 in 10.0 mi WSW 11.5 mph 17.3 mph N/A   Scattered Clouds
6:54 PM 66.9 °F 27.0 °F 22% 30.15 in 10.0 mi WNW 13.8 mph - N/A   Mostly Cloudy
7:54 PM 66.0 °F 25.0 °F 21% 30.16 in 10.0 mi NW 6.9 mph - N/A   Mostly Cloudy
8:54 PM 62.1 °F 30.0 °F 30% 30.19 in 10.0 mi Calm Calm - N/A   Overcast
9:54 PM 55.0 °F 35.1 °F 47% 30.20 in 10.0 mi South 6.9 mph - N/A   Mostly Cloudy
10:54 PM 52.0 °F 37.0 °F 57% 30.21 in 10.0 mi South 8.1 mph - N/A   Partly Cloudy
11:54 PM 51.1 °F 37.9 °F 61% 30.21 in 10.0 mi SSW 10.4 mph - N/A   Scattered Clouds